User: anonymous   Login
Location: Unspecified
(51.3762°N, 0.0000°E)
Time: 07:57:33
(UTC+00:00)
Language:

nSIGHT-1 - Orbit

View from above orbital plane
View from above orbital plane
View from above satellite
View from above satellite

Ground track
Ground track

The orbit data is extracted from the following two-line orbital elements,

1 42726U 98067MF  19201.11813316  .00013561  00000-0  10449-3 0  9995
2 42726  51.6356 147.8478 0003554 307.0728  52.9945 15.72324418122761
Epoch (UTC): 20 July 2019 02:50:06
Eccentricity: 0.0003554
inclination: 51.6356°
perigee height: 350 km
apogee height: 354 km
right ascension of ascending node: 147.8478°
argument of perigee: 307.0728°
revolutions per day: 15.72324418
mean anomaly at epoch: 52.9945°
orbit number at epoch: 12276

The dashed part of the orbit path shows where the satellite is in the earth's shadow,  

DLR